Time,TemperatureF,DewpointF,PressureIn,WindDirection,WindDirectionDegrees,WindSpeedMPH,WindSpeedGustMPH,Humidity,HourlyPrecipIn,Conditions,Clouds,dailyrainin,SolarRadiationWatts/m^2,SoftwareType,DateUTC
2013-01-19 00:00:00,26.1,16.0,30.39,ESE,112,0.0,1.0,65,0.00,,,0.00,0,LWC V2.00 B2112,2013-01-19 05:00:00,
2013-01-19 00:10:00,25.7,16.3,30.39,ESE,112,0.0,1.0,67,0.00,,,0.00,0,LWC V2.00 B2112,2013-01-19 05:10:00,
2013-01-19 00:20:00,25.7,16.3,30.39,ESE,112,0.0,1.0,67,0.00,,,0.00,0,LWC V2.00 B2112,2013-01-19 05:20:00,
2013-01-19 00:30:00,25.7,16.3,30.39,ESE,112,0.0,1.0,67,0.00,,,0.00,0,LWC V2.00 B2112,2013-01-19 05:30:00,
2013-01-19 00:40:00,25.7,16.3,30.38,ESE,112,0.0,1.0,67,0.00,,,0.00,0,LWC V2.00 B2112,2013-01-19 05:40:00,
2013-01-19 00:50:00,25.7,16.3,30.38,ESE,112,0.0,1.0,67,0.00,,,0.00,0,LWC V2.00 B2112,2013-01-19 05:50:00,
2013-01-19 01:00:00,25.7,16.3,30.38,ESE,112,0.0,1.0,67,0.00,,,0.00,0,LWC V2.00 B2112,2013-01-19 06:00:00,
2013-01-19 01:10:00,26.5,16.4,30.37,SW,225,0.0,2.0,65,0.00,,,0.00,0,LWC V2.00 B2112,2013-01-19 06:10:00,
2013-01-19 01:20:00,26.5,16.4,30.37,SW,225,0.0,2.0,65,0.00,,,0.00,0,LWC V2.00 B2112,2013-01-19 06:20:00,
2013-01-19 01:30:00,26.5,16.4,30.37,SW,225,0.0,2.0,65,0.00,,,0.00,0,LWC V2.00 B2112,2013-01-19 06:30:00,
2013-01-19 01:40:00,27.2,16.7,30.37,SW,225,0.0,1.0,64,0.00,,,0.00,0,LWC V2.00 B2112,2013-01-19 06:40:00,
2013-01-19 01:50:00,27.2,16.7,30.37,SW,225,0.0,1.0,64,0.00,,,0.00,0,LWC V2.00 B2112,2013-01-19 06:50:00,
2013-01-19 02:00:00,27.5,17.3,30.37,SW,225,0.0,2.0,65,0.00,,,0.00,0,LWC V2.00 B2112,2013-01-19 07:00:00,
2013-01-19 02:10:00,27.5,17.3,30.37,SW,225,0.0,2.0,65,0.00,,,0.00,0,LWC V2.00 B2112,2013-01-19 07:10:00,
2013-01-19 02:20:00,27.5,17.3,30.37,SW,225,0.0,2.0,65,0.00,,,0.00,0,LWC V2.00 B2112,2013-01-19 07:20:00,
2013-01-19 02:30:00,27.3,17.5,30.35,WSW,248,0.0,1.0,66,0.00,,,0.00,0,LWC V2.00 B2112,2013-01-19 07:30:00,
2013-01-19 02:40:00,27.3,17.5,30.35,WSW,248,0.0,1.0,66,0.00,,,0.00,0,LWC V2.00 B2112,2013-01-19 07:40:00,
2013-01-19 02:50:00,27.3,17.5,30.35,WSW,248,0.0,1.0,66,0.00,,,0.00,0,LWC V2.00 B2112,2013-01-19 07:50:00,
2013-01-19 03:00:00,27.0,18.2,30.34,WSW,248,0.0,1.0,69,0.00,,,0.00,0,LWC V2.00 B2112,2013-01-19 08:00:00,
2013-01-19 03:10:00,27.0,18.2,30.34,WSW,248,0.0,1.0,69,0.00,,,0.00,0,LWC V2.00 B2112,2013-01-19 08:10:00,
2013-01-19 03:20:00,27.0,18.2,30.34,WSW,248,0.0,1.0,69,0.00,,,0.00,0,LWC V2.00 B2112,2013-01-19 08:20:00,
2013-01-19 03:30:00,27.2,18.7,30.32,WSW,248,0.0,1.0,70,0.00,,,0.00,0,LWC V2.00 B2112,2013-01-19 08:30:00,
2013-01-19 03:40:00,27.2,18.7,30.32,WSW,248,0.0,1.0,70,0.00,,,0.00,0,LWC V2.00 B2112,2013-01-19 08:40:00,
2013-01-19 03:50:00,27.2,18.7,30.32,WSW,248,0.0,1.0,70,0.00,,,0.00,0,LWC V2.00 B2112,2013-01-19 08:50:00,
2013-01-19 04:00:00,27.4,19.6,30.32,WSW,248,0.0,1.0,72,0.00,,,0.00,0,LWC V2.00 B2112,2013-01-19 09:00:00,
2013-01-19 04:10:00,27.4,19.6,30.32,WSW,248,0.0,1.0,72,0.00,,,0.00,0,LWC V2.00 B2112,2013-01-19 09:10:00,
2013-01-19 04:20:00,27.4,19.6,30.32,WSW,248,0.0,1.0,72,0.00,,,0.00,0,LWC V2.00 B2112,2013-01-19 09:20:00,
2013-01-19 04:30:00,27.1,19.9,30.31,WSW,248,0.0,1.0,74,0.00,,,0.00,0,LWC V2.00 B2112,2013-01-19 09:30:00,
2013-01-19 04:40:00,27.1,19.9,30.31,WSW,248,0.0,1.0,74,0.00,,,0.00,0,LWC V2.00 B2112,2013-01-19 09:40:00,
2013-01-19 04:50:00,27.1,19.9,30.31,WSW,248,0.0,1.0,74,0.00,,,0.00,0,LWC V2.00 B2112,2013-01-19 09:50:00,
2013-01-19 05:00:00,26.9,20.7,30.31,North,0,0.0,0.0,77,0.00,,,0.00,0,LWC V2.00 B2112,2013-01-19 10:00:00,
2013-01-19 05:10:00,26.9,20.7,30.31,North,0,0.0,0.0,77,0.00,,,0.00,0,LWC V2.00 B2112,2013-01-19 10:10:00,
2013-01-19 05:20:00,26.9,20.7,30.31,North,0,0.0,0.0,77,0.00,,,0.00,0,LWC V2.00 B2112,2013-01-19 10:20:00,
2013-01-19 05:30:00,26.8,20.9,30.30,WSW,248,0.0,1.0,78,0.00,,,0.00,0,LWC V2.00 B2112,2013-01-19 10:30:00,
2013-01-19 05:40:00,26.8,20.9,30.30,WSW,248,0.0,1.0,78,0.00,,,0.00,0,LWC V2.00 B2112,2013-01-19 10:40:00,
2013-01-19 05:50:00,26.8,20.9,30.30,WSW,248,0.0,1.0,78,0.00,,,0.00,0,LWC V2.00 B2112,2013-01-19 10:50:00,
2013-01-19 06:00:00,27.0,21.4,30.30,WSW,248,0.0,1.0,79,0.00,,,0.00,0,LWC V2.00 B2112,2013-01-19 11:00:00,
2013-01-19 06:10:00,27.0,21.4,30.30,WSW,248,0.0,1.0,79,0.00,,,0.00,0,LWC V2.00 B2112,2013-01-19 11:10:00,
2013-01-19 06:20:00,27.0,21.4,30.30,WSW,248,0.0,1.0,79,0.00,,,0.00,0,LWC V2.00 B2112,2013-01-19 11:20:00,
2013-01-19 06:30:00,27.8,22.4,30.29,WSW,248,0.0,3.0,80,0.00,,,0.00,0,LWC V2.00 B2112,2013-01-19 11:30:00,
2013-01-19 06:40:00,27.8,22.4,30.29,WSW,248,0.0,3.0,80,0.00,,,0.00,0,LWC V2.00 B2112,2013-01-19 11:40:00,
2013-01-19 06:50:00,27.8,22.4,30.29,WSW,248,0.0,3.0,80,0.00,,,0.00,0,LWC V2.00 B2112,2013-01-19 11:50:00,
2013-01-19 07:00:00,27.8,22.4,30.29,WSW,248,0.0,3.0,80,0.00,,,0.00,0,LWC V2.00 B2112,2013-01-19 12:00:00,
2013-01-19 07:10:00,28.3,22.9,30.29,WSW,248,0.0,2.0,80,0.00,,,0.00,0,LWC V2.00 B2112,2013-01-19 12:10:00,
2013-01-19 07:20:00,28.3,22.9,30.29,WSW,248,0.0,2.0,80,0.00,,,0.00,0,LWC V2.00 B2112,2013-01-19 12:20:00,
2013-01-19 07:30:00,28.3,22.9,30.29,WSW,248,0.0,2.0,80,0.00,,,0.00,0,LWC V2.00 B2112,2013-01-19 12:30:00,
2013-01-19 07:40:00,28.1,23.3,30.28,WSW,248,0.0,1.0,82,0.00,,,0.00,2,LWC V2.00 B2112,2013-01-19 12:40:00,
2013-01-19 07:50:00,28.1,23.3,30.28,WSW,248,0.0,1.0,82,0.00,,,0.00,2,LWC V2.00 B2112,2013-01-19 12:50:00,
2013-01-19 08:00:00,28.1,23.3,30.28,WSW,248,0.0,1.0,82,0.00,,,0.00,2,LWC V2.00 B2112,2013-01-19 13:00:00,
2013-01-19 08:10:00,30.2,24.8,30.27,WSW,248,0.0,2.0,80,0.00,,,0.00,9,LWC V2.00 B2112,2013-01-19 13:10:00,
2013-01-19 08:20:00,30.2,24.8,30.27,WSW,248,0.0,2.0,80,0.00,,,0.00,9,LWC V2.00 B2112,2013-01-19 13:20:00,
2013-01-19 08:30:00,30.2,24.8,30.27,WSW,248,0.0,2.0,80,0.00,,,0.00,9,LWC V2.00 B2112,2013-01-19 13:30:00,
2013-01-19 08:40:00,33.9,27.5,30.27,NW,315,0.0,3.0,77,0.00,,,0.00,18,LWC V2.00 B2112,2013-01-19 13:40:00,
2013-01-19 08:50:00,33.9,27.5,30.27,NW,315,0.0,3.0,77,0.00,,,0.00,18,LWC V2.00 B2112,2013-01-19 13:50:00,
2013-01-19 09:00:00,33.9,27.5,30.27,NW,315,0.0,3.0,77,0.00,,,0.00,18,LWC V2.00 B2112,2013-01-19 14:00:00,
2013-01-19 09:10:00,36.3,28.5,30.27,NNW,338,1.0,5.0,73,0.00,,,0.00,20,LWC V2.00 B2112,2013-01-19 14:10:00,
2013-01-19 09:20:00,36.3,28.5,30.27,NNW,338,1.0,5.0,73,0.00,,,0.00,20,LWC V2.00 B2112,2013-01-19 14:20:00,
2013-01-19 09:30:00,36.3,28.5,30.27,NNW,338,1.0,5.0,73,0.00,,,0.00,20,LWC V2.00 B2112,2013-01-19 14:30:00,
2013-01-19 09:40:00,37.8,29.2,30.26,NNW,338,1.0,4.0,71,0.00,,,0.00,18,LWC V2.00 B2112,2013-01-19 14:40:00,
2013-01-19 09:50:00,37.8,29.2,30.26,NNW,338,1.0,4.0,71,0.00,,,0.00,18,LWC V2.00 B2112,2013-01-19 14:50:00,
2013-01-19 10:00:00,37.8,29.2,30.26,NNW,338,1.0,4.0,71,0.00,,,0.00,18,LWC V2.00 B2112,2013-01-19 15:00:00,
2013-01-19 10:10:00,40.4,29.6,30.25,NNW,338,1.0,7.0,65,0.00,,,0.00,19,LWC V2.00 B2112,2013-01-19 15:10:00,
2013-01-19 10:20:00,40.4,29.6,30.25,NNW,338,1.0,7.0,65,0.00,,,0.00,19,LWC V2.00 B2112,2013-01-19 15:20:00,
2013-01-19 10:30:00,40.4,29.6,30.25,NNW,338,1.0,7.0,65,0.00,,,0.00,19,LWC V2.00 B2112,2013-01-19 15:30:00,
2013-01-19 10:40:00,41.5,29.9,30.23,NNW,338,1.0,4.0,63,0.00,,,0.00,18,LWC V2.00 B2112,2013-01-19 15:40:00,
2013-01-19 10:50:00,41.5,29.9,30.23,NNW,338,1.0,4.0,63,0.00,,,0.00,18,LWC V2.00 B2112,2013-01-19 15:50:00,
2013-01-19 11:00:00,41.5,29.9,30.23,NNW,338,1.0,4.0,63,0.00,,,0.00,18,LWC V2.00 B2112,2013-01-19 16:00:00,
2013-01-19 11:10:00,43.2,29.9,30.20,NNW,338,1.0,7.0,59,0.00,,,0.00,20,LWC V2.00 B2112,2013-01-19 16:10:00,
2013-01-19 11:20:00,43.2,29.9,30.20,NNW,338,1.0,7.0,59,0.00,,,0.00,20,LWC V2.00 B2112,2013-01-19 16:20:00,
2013-01-19 11:30:00,43.2,29.9,30.20,NNW,338,1.0,7.0,59,0.00,,,0.00,20,LWC V2.00 B2112,2013-01-19 16:30:00,
2013-01-19 11:40:00,44.8,30.1,30.17,NNW,338,1.0,5.0,56,0.00,,,0.00,23,LWC V2.00 B2112,2013-01-19 16:40:00,
2013-01-19 11:50:00,44.8,30.1,30.17,NNW,338,1.0,5.0,56,0.00,,,0.00,23,LWC V2.00 B2112,2013-01-19 16:50:00,
2013-01-19 12:00:00,44.8,30.1,30.17,NNW,338,1.0,5.0,56,0.00,,,0.00,23,LWC V2.00 B2112,2013-01-19 17:00:00,
2013-01-19 12:10:00,45.9,30.6,30.15,NNW,338,1.0,4.0,55,0.00,,,0.00,34,LWC V2.00 B2112,2013-01-19 17:10:00,
2013-01-19 12:20:00,45.9,30.6,30.15,NNW,338,1.0,4.0,55,0.00,,,0.00,34,LWC V2.00 B2112,2013-01-19 17:20:00,
2013-01-19 12:30:00,45.9,30.6,30.15,NNW,338,1.0,4.0,55,0.00,,,0.00,34,LWC V2.00 B2112,2013-01-19 17:30:00,
2013-01-19 12:40:00,47.8,31.0,30.12,NNW,338,1.0,5.0,52,0.00,,,0.00,43,LWC V2.00 B2112,2013-01-19 17:40:00,
2013-01-19 12:50:00,47.8,31.0,30.12,NNW,338,1.0,5.0,52,0.00,,,0.00,43,LWC V2.00 B2112,2013-01-19 17:50:00,
2013-01-19 13:00:00,47.8,31.0,30.12,NNW,338,1.0,5.0,52,0.00,,,0.00,43,LWC V2.00 B2112,2013-01-19 18:00:00,
2013-01-19 13:10:00,48.4,31.1,30.11,NNW,338,1.0,6.0,51,0.00,,,0.00,44,LWC V2.00 B2112,2013-01-19 18:10:00,
2013-01-19 13:20:00,48.4,31.1,30.11,NNW,338,1.0,6.0,51,0.00,,,0.00,44,LWC V2.00 B2112,2013-01-19 18:20:00,
2013-01-19 13:30:00,48.4,31.1,30.11,NNW,338,1.0,6.0,51,0.00,,,0.00,44,LWC V2.00 B2112,2013-01-19 18:30:00,
2013-01-19 13:40:00,49.5,30.1,30.09,NNW,338,1.0,6.0,47,0.00,,,0.00,41,LWC V2.00 B2112,2013-01-19 18:40:00,
2013-01-19 13:50:00,49.5,30.1,30.09,NNW,338,1.0,6.0,47,0.00,,,0.00,41,LWC V2.00 B2112,2013-01-19 18:50:00,
2013-01-19 14:00:00,49.5,30.1,30.09,NNW,338,1.0,6.0,47,0.00,,,0.00,41,LWC V2.00 B2112,2013-01-19 19:00:00,
2013-01-19 14:10:00,50.3,30.3,30.08,NNW,338,1.0,4.0,46,0.00,,,0.00,35,LWC V2.00 B2112,2013-01-19 19:10:00,
2013-01-19 14:20:00,50.3,30.3,30.08,NNW,338,1.0,4.0,46,0.00,,,0.00,35,LWC V2.00 B2112,2013-01-19 19:20:00,
2013-01-19 14:30:00,50.3,30.3,30.08,NNW,338,1.0,4.0,46,0.00,,,0.00,35,LWC V2.00 B2112,2013-01-19 19:30:00,
2013-01-19 14:40:00,50.8,30.8,30.07,NNW,338,1.0,4.0,46,0.00,,,0.00,29,LWC V2.00 B2112,2013-01-19 19:40:00,
2013-01-19 14:50:00,50.8,30.8,30.07,NNW,338,1.0,4.0,46,0.00,,,0.00,29,LWC V2.00 B2112,2013-01-19 19:50:00,
2013-01-19 15:00:00,50.8,30.8,30.07,NNW,338,1.0,4.0,46,0.00,,,0.00,29,LWC V2.00 B2112,2013-01-19 20:00:00,
2013-01-19 15:10:00,50.4,29.9,30.06,NNW,338,0.0,4.0,45,0.00,,,0.00,22,LWC V2.00 B2112,2013-01-19 20:10:00,
2013-01-19 15:20:00,50.4,29.9,30.06,NNW,338,0.0,4.0,45,0.00,,,0.00,22,LWC V2.00 B2112,2013-01-19 20:20:00,
2013-01-19 15:30:00,50.4,29.9,30.06,NNW,338,0.0,4.0,45,0.00,,,0.00,22,LWC V2.00 B2112,2013-01-19 20:30:00,
2013-01-19 15:40:00,49.8,29.3,30.05,NNW,338,0.0,3.0,45,0.00,,,0.00,13,LWC V2.00 B2112,2013-01-19 20:40:00,
2013-01-19 15:50:00,49.8,29.3,30.05,NNW,338,0.0,3.0,45,0.00,,,0.00,13,LWC V2.00 B2112,2013-01-19 20:50:00,
2013-01-19 16:00:00,49.8,29.3,30.05,NNW,338,0.0,3.0,45,0.00,,,0.00,13,LWC V2.00 B2112,2013-01-19 21:00:00,
2013-01-19 16:10:00,49.4,29.5,30.04,NNW,338,0.0,4.0,46,0.00,,,0.00,7,LWC V2.00 B2112,2013-01-19 21:10:00,
2013-01-19 16:20:00,49.4,29.5,30.04,NNW,338,0.0,4.0,46,0.00,,,0.00,7,LWC V2.00 B2112,2013-01-19 21:20:00,
2013-01-19 16:30:00,49.4,29.5,30.04,NNW,338,0.0,4.0,46,0.00,,,0.00,7,LWC V2.00 B2112,2013-01-19 21:30:00,
2013-01-19 16:40:00,49.0,29.7,30.04,NNW,338,0.0,4.0,47,0.00,,,0.00,4,LWC V2.00 B2112,2013-01-19 21:40:00,
2013-01-19 16:50:00,49.0,29.7,30.04,NNW,338,0.0,4.0,47,0.00,,,0.00,4,LWC V2.00 B2112,2013-01-19 21:50:00,
2013-01-19 17:00:00,49.0,29.7,30.04,NNW,338,0.0,4.0,47,0.00,,,0.00,4,LWC V2.00 B2112,2013-01-19 22:00:00,
2013-01-19 17:10:00,47.7,30.0,30.03,NNW,338,0.0,2.0,50,0.00,,,0.00,0,LWC V2.00 B2112,2013-01-19 22:10:00,
2013-01-19 17:20:00,47.7,30.0,30.03,NNW,338,0.0,2.0,50,0.00,,,0.00,0,LWC V2.00 B2112,2013-01-19 22:20:00,
2013-01-19 17:30:00,47.7,30.0,30.03,NNW,338,0.0,2.0,50,0.00,,,0.00,0,LWC V2.00 B2112,2013-01-19 22:30:00,
2013-01-19 17:40:00,46.6,30.4,30.03,NNW,338,0.0,2.0,53,0.00,,,0.00,0,LWC V2.00 B2112,2013-01-19 22:40:00,
2013-01-19 17:50:00,46.6,30.4,30.03,NNW,338,0.0,2.0,53,0.00,,,0.00,0,LWC V2.00 B2112,2013-01-19 22:50:00,
2013-01-19 18:00:00,46.6,30.4,30.03,NNW,338,0.0,2.0,53,0.00,,,0.00,0,LWC V2.00 B2112,2013-01-19 23:00:00,
2013-01-19 18:10:00,45.8,30.1,30.02,NNW,338,0.0,1.0,54,0.00,,,0.00,0,LWC V2.00 B2112,2013-01-19 23:10:00,
2013-01-19 18:20:00,45.8,30.1,30.02,NNW,338,0.0,1.0,54,0.00,,,0.00,0,LWC V2.00 B2112,2013-01-19 23:20:00,
2013-01-19 18:30:00,45.8,30.1,30.02,NNW,338,0.0,1.0,54,0.00,,,0.00,0,LWC V2.00 B2112,2013-01-19 23:30:00,
2013-01-19 18:40:00,44.5,30.2,30.03,NNW,338,0.0,1.0,57,0.00,,,0.00,0,LWC V2.00 B2112,2013-01-19 23:40:00,
2013-01-19 18:50:00,44.5,30.2,30.03,NNW,338,0.0,1.0,57,0.00,,,0.00,0,LWC V2.00 B2112,2013-01-19 23:50:00,
2013-01-19 19:00:00,44.5,30.2,30.03,NNW,338,0.0,1.0,57,0.00,,,0.00,0,LWC V2.00 B2112,2013-01-20 00:00:00,
2013-01-19 19:10:00,42.7,29.8,30.02,North,0,0.0,0.0,60,0.00,,,0.00,0,LWC V2.00 B2112,2013-01-20 00:10:00,
2013-01-19 19:20:00,42.7,29.8,30.02,North,0,0.0,0.0,60,0.00,,,0.00,0,LWC V2.00 B2112,2013-01-20 00:20:00,
2013-01-19 19:30:00,42.7,29.8,30.02,North,0,0.0,0.0,60,0.00,,,0.00,0,LWC V2.00 B2112,2013-01-20 00:30:00,
2013-01-19 19:40:00,41.3,30.1,30.02,North,0,0.0,0.0,64,0.00,,,0.00,0,LWC V2.00 B2112,2013-01-20 00:40:00,
2013-01-19 19:50:00,41.3,30.1,30.02,North,0,0.0,0.0,64,0.00,,,0.00,0,LWC V2.00 B2112,2013-01-20 00:50:00,
2013-01-19 20:00:00,40.3,30.2,30.00,NNW,338,0.0,1.0,67,0.00,,,0.00,0,LWC V2.00 B2112,2013-01-20 01:00:00,
2013-01-19 20:10:00,40.3,30.2,30.00,NNW,338,0.0,1.0,67,0.00,,,0.00,0,LWC V2.00 B2112,2013-01-20 01:10:00,
2013-01-19 20:20:00,40.3,30.2,30.00,NNW,338,0.0,1.0,67,0.00,,,0.00,0,LWC V2.00 B2112,2013-01-20 01:20:00,
2013-01-19 20:30:00,40.3,30.6,29.99,NNW,338,0.0,1.0,68,0.00,,,0.00,0,LWC V2.00 B2112,2013-01-20 01:30:00,
2013-01-19 20:40:00,40.3,30.6,29.99,NNW,338,0.0,1.0,68,0.00,,,0.00,0,LWC V2.00 B2112,2013-01-20 01:40:00,
2013-01-19 20:50:00,40.3,30.6,29.99,NNW,338,0.0,1.0,68,0.00,,,0.00,0,LWC V2.00 B2112,2013-01-20 01:50:00,
2013-01-19 21:00:00,41.2,30.7,29.98,NNW,338,0.0,1.0,66,0.00,,,0.00,0,LWC V2.00 B2112,2013-01-20 02:00:00,
2013-01-19 21:10:00,41.2,30.7,29.98,NNW,338,0.0,1.0,66,0.00,,,0.00,0,LWC V2.00 B2112,2013-01-20 02:10:00,
2013-01-19 21:20:00,41.2,30.7,29.98,NNW,338,0.0,1.0,66,0.00,,,0.00,0,LWC V2.00 B2112,2013-01-20 02:20:00,
2013-01-19 21:30:00,41.8,30.9,29.97,NNW,338,0.0,2.0,65,0.00,,,0.00,0,LWC V2.00 B2112,2013-01-20 02:30:00,
2013-01-19 21:40:00,41.8,30.9,29.97,NNW,338,0.0,2.0,65,0.00,,,0.00,0,LWC V2.00 B2112,2013-01-20 02:40:00,
2013-01-19 21:50:00,41.8,30.9,29.97,NNW,338,0.0,2.0,65,0.00,,,0.00,0,LWC V2.00 B2112,2013-01-20 02:50:00,
2013-01-19 22:00:00,42.1,31.2,29.96,NNW,338,0.0,1.0,65,0.00,,,0.00,0,LWC V2.00 B2112,2013-01-20 03:00:00,
2013-01-19 22:10:00,42.1,31.2,29.96,NNW,338,0.0,1.0,65,0.00,,,0.00,0,LWC V2.00 B2112,2013-01-20 03:10:00,
2013-01-19 22:20:00,42.1,31.2,29.96,NNW,338,0.0,1.0,65,0.00,,,0.00,0,LWC V2.00 B2112,2013-01-20 03:20:00,
2013-01-19 22:30:00,42.1,31.2,29.95,NNW,338,0.0,1.0,65,0.00,,,0.00,0,LWC V2.00 B2112,2013-01-20 03:30:00,
2013-01-19 22:40:00,42.1,31.2,29.95,NNW,338,0.0,1.0,65,0.00,,,0.00,0,LWC V2.00 B2112,2013-01-20 03:40:00,
2013-01-19 22:50:00,42.1,31.2,29.95,NNW,338,0.0,1.0,65,0.00,,,0.00,0,LWC V2.00 B2112,2013-01-20 03:50:00,
2013-01-19 23:00:00,41.8,30.9,29.93,NNW,338,0.0,2.0,65,0.00,,,0.00,0,LWC V2.00 B2112,2013-01-20 04:00:00,
2013-01-19 23:10:00,41.8,30.9,29.93,NNW,338,0.0,2.0,65,0.00,,,0.00,0,LWC V2.00 B2112,2013-01-20 04:10:00,
2013-01-19 23:20:00,41.8,30.9,29.93,NNW,338,0.0,2.0,65,0.00,,,0.00,0,LWC V2.00 B2112,2013-01-20 04:20:00,
2013-01-19 23:30:00,41.4,30.9,29.91,NNW,338,0.0,2.0,66,0.00,,,0.00,0,LWC V2.00 B2112,2013-01-20 04:30:00,
2013-01-19 23:40:00,41.4,30.9,29.91,NNW,338,0.0,2.0,66,0.00,,,0.00,0,LWC V2.00 B2112,2013-01-20 04:40:00,
2013-01-19 23:50:00,41.4,30.9,29.91,NNW,338,0.0,2.0,66,0.00,,,0.00,0,LWC V2.00 B2112,2013-01-20 04:50:00,